Time,TemperatureF,DewpointF,PressureIn,WindDirection,WindDirectionDegrees,WindSpeedMPH,WindSpeedGustMPH,Humidity,HourlyPrecipIn,Conditions,Clouds,dailyrainin,SoftwareType,DateUTC
2013-04-05 00:10:00,39.6,34.0,30.11,SSW,203,1.0,8.0,81,0.00,,,0.00,weatherlink.com 1.10,2013-04-05 04:10:00,
2013-04-05 00:25:00,39.7,34.0,30.11,SSW,207,3.0,8.0,81,0.00,,,0.00,weatherlink.com 1.10,2013-04-05 04:25:00,
2013-04-05 00:40:00,39.7,35.0,30.11,SE,125,3.0,8.0,82,0.00,,,0.00,weatherlink.com 1.10,2013-04-05 04:40:00,
2013-04-05 00:55:00,39.8,35.0,30.10,WSW,255,2.0,7.0,82,0.00,,,0.00,weatherlink.com 1.10,2013-04-05 04:55:00,
2013-04-05 01:10:00,39.9,35.0,30.09,SSW,197,3.0,8.0,81,0.00,,,0.00,weatherlink.com 1.10,2013-04-05 05:10:00,
2013-04-05 01:25:00,40.0,35.0,30.09,South,173,10.0,11.0,81,0.00,,,0.00,weatherlink.com 1.10,2013-04-05 05:25:00,
2013-04-05 01:40:00,40.1,34.0,30.09,WSW,239,4.0,7.0,80,0.00,,,0.00,weatherlink.com 1.10,2013-04-05 05:40:00,
2013-04-05 01:56:00,40.1,33.0,30.09,West,271,1.0,6.0,77,0.00,,,0.00,weatherlink.com 1.10,2013-04-05 05:56:00,
2013-04-05 02:11:00,40.2,32.0,30.07,WNW,282,1.0,13.0,73,0.00,,,0.00,weatherlink.com 1.10,2013-04-05 06:11:00,
2013-04-05 02:26:00,40.3,32.0,30.07,SSW,203,2.0,9.0,71,0.00,,,0.00,weatherlink.com 1.10,2013-04-05 06:26:00,
2013-04-05 02:41:00,40.4,32.0,30.06,SW,221,0.0,7.0,71,0.00,,,0.00,weatherlink.com 1.10,2013-04-05 06:41:00,
2013-04-05 03:41:00,40.8,34.0,30.03,South,186,0.0,5.0,76,0.00,,,0.00,weatherlink.com 1.10,2013-04-05 07:41:00,
2013-04-05 04:11:00,40.9,34.0,30.02,South,189,0.0,6.0,76,0.00,,,0.00,weatherlink.com 1.10,2013-04-05 08:11:00,
2013-04-05 04:26:00,40.9,34.0,30.02,South,188,0.0,6.0,77,0.00,,,0.00,weatherlink.com 1.10,2013-04-05 08:26:00,
2013-04-05 04:41:00,41.0,33.0,30.02,West,274,2.0,6.0,72,0.00,,,0.00,weatherlink.com 1.10,2013-04-05 08:41:00,
2013-04-05 04:56:00,41.1,34.0,30.02,West,274,2.0,6.0,75,0.00,,,0.00,weatherlink.com 1.10,2013-04-05 08:56:00,
2013-04-05 05:11:00,41.2,34.0,30.01,WSW,251,1.0,8.0,75,0.00,,,0.00,weatherlink.com 1.10,2013-04-05 09:11:00,
2013-04-05 05:26:00,41.2,34.0,30.00,South,171,3.0,4.0,74,0.00,,,0.00,weatherlink.com 1.10,2013-04-05 09:26:00,
2013-04-05 05:41:00,41.5,33.0,29.99,SW,235,0.0,6.0,73,0.00,,,0.00,weatherlink.com 1.10,2013-04-05 09:41:00,
2013-04-05 05:56:00,41.6,34.0,29.98,SSW,198,2.0,6.0,74,0.00,,,0.00,weatherlink.com 1.10,2013-04-05 09:56:00,
2013-04-05 06:11:00,41.7,34.0,29.98,SE,146,1.0,4.0,73,0.00,,,0.00,weatherlink.com 1.10,2013-04-05 10:11:00,
2013-04-05 06:26:00,41.6,35.0,29.97,SSW,198,4.0,6.0,76,0.00,,,0.00,weatherlink.com 1.10,2013-04-05 10:26:00,
2013-04-05 06:41:00,41.6,35.0,29.98,South,169,1.0,5.0,77,0.00,,,0.00,weatherlink.com 1.10,2013-04-05 10:41:00,
2013-04-05 06:57:00,41.7,35.0,29.98,SSE,155,0.0,5.0,77,0.00,,,0.00,weatherlink.com 1.10,2013-04-05 10:57:00,
2013-04-05 07:12:00,41.9,35.0,29.98,WSW,250,0.0,4.0,77,0.00,,,0.00,weatherlink.com 1.10,2013-04-05 11:12:00,
2013-04-05 07:26:00,41.9,35.0,29.98,South,169,0.0,4.0,77,0.00,,,0.00,weatherlink.com 1.10,2013-04-05 11:26:00,
2013-04-05 07:42:00,42.2,35.0,29.97,ESE,118,1.0,6.0,77,0.00,,,0.00,weatherlink.com 1.10,2013-04-05 11:42:00,
2013-04-05 07:56:00,42.4,36.0,29.97,SSE,150,3.0,4.0,77,0.00,,,0.00,weatherlink.com 1.10,2013-04-05 11:56:00,
2013-04-05 08:27:00,42.5,36.0,29.94,West,279,1.0,6.0,78,0.00,,,0.00,weatherlink.com 1.10,2013-04-05 12:27:00,
2013-04-05 08:42:00,42.6,37.0,29.94,SSW,205,0.0,4.0,80,0.00,,,0.00,weatherlink.com 1.10,2013-04-05 12:42:00,
2013-04-05 08:57:00,42.5,37.0,29.93,SSW,205,1.0,5.0,82,0.00,,,0.00,weatherlink.com 1.10,2013-04-05 12:57:00,
2013-04-05 09:12:00,42.5,38.0,29.93,SSW,202,1.0,5.0,83,0.00,,,0.00,weatherlink.com 1.10,2013-04-05 13:12:00,
2013-04-05 09:27:00,42.5,38.0,29.93,South,184,0.0,3.0,85,0.00,,,0.00,weatherlink.com 1.10,2013-04-05 13:27:00,
2013-04-05 09:42:00,42.4,38.0,29.92,SSW,207,1.0,4.0,85,0.00,,,0.00,weatherlink.com 1.10,2013-04-05 13:42:00,
2013-04-05 09:57:00,42.4,38.0,29.92,South,191,0.0,4.0,85,0.00,,,0.00,weatherlink.com 1.10,2013-04-05 13:57:00,
2013-04-05 10:12:00,42.4,39.0,29.91,SW,221,0.0,2.0,86,0.00,,,0.00,weatherlink.com 1.10,2013-04-05 14:12:00,
2013-04-05 10:27:00,42.4,39.0,29.89,South,177,0.0,2.0,87,0.01,,,0.01,weatherlink.com 1.10,2013-04-05 14:27:00,
2013-04-05 10:42:00,42.5,39.0,29.89,South,175,2.0,2.0,87,0.01,,,0.01,weatherlink.com 1.10,2013-04-05 14:42:00,
2013-04-05 11:12:00,42.6,39.0,29.88,South,172,0.0,2.0,87,0.01,,,0.01,weatherlink.com 1.10,2013-04-05 15:12:00,
2013-04-05 11:27:00,42.8,40.0,29.88,WSW,255,0.0,2.0,88,0.00,,,0.01,weatherlink.com 1.10,2013-04-05 15:27:00,
2013-04-05 11:42:00,43.1,40.0,29.86,South,177,1.0,2.0,88,0.00,,,0.01,weatherlink.com 1.10,2013-04-05 15:42:00,
2013-04-05 11:57:00,43.6,40.0,29.85,SW,222,0.0,3.0,86,0.00,,,0.01,weatherlink.com 1.10,2013-04-05 15:57:00,
2013-04-05 12:12:00,43.7,40.0,29.83,East,101,0.0,1.0,86,0.00,,,0.01,weatherlink.com 1.10,2013-04-05 16:12:00,
2013-04-05 12:27:00,43.6,40.0,29.82,ESE,121,1.0,1.0,87,0.00,,,0.01,weatherlink.com 1.10,2013-04-05 16:27:00,
2013-04-05 12:42:00,43.9,41.0,29.80,NNE,28,0.0,2.0,88,0.00,,,0.01,weatherlink.com 1.10,2013-04-05 16:42:00,
2013-04-05 13:00:00,45.2,41.0,29.78,ENE,59,2.0,4.0,86,0.00,,,0.01,weatherlink.com 1.10,2013-04-05 17:00:00,
2013-04-05 13:12:00,46.1,41.0,29.77,ENE,72,0.0,3.0,82,0.00,,,0.01,weatherlink.com 1.10,2013-04-05 17:12:00,
2013-04-05 13:28:00,47.6,42.0,29.76,North,6,0.0,2.0,80,0.00,,,0.01,weatherlink.com 1.10,2013-04-05 17:28:00,
2013-04-05 13:43:00,48.9,42.0,29.74,East,83,1.0,3.0,77,0.00,,,0.01,weatherlink.com 1.10,2013-04-05 17:43:00,
2013-04-05 13:58:00,50.6,42.0,29.74,West,266,1.0,3.0,73,0.00,,,0.01,weatherlink.com 1.10,2013-04-05 17:58:00,
2013-04-05 14:13:00,51.5,43.0,29.73,South,175,2.0,5.0,72,0.00,,,0.01,weatherlink.com 1.10,2013-04-05 18:13:00,
2013-04-05 14:28:00,51.8,43.0,29.71,SE,127,2.0,4.0,71,0.00,,,0.01,weatherlink.com 1.10,2013-04-05 18:28:00,
2013-04-05 14:43:00,51.9,42.0,29.70,South,177,3.0,4.0,70,0.00,,,0.01,weatherlink.com 1.10,2013-04-05 18:43:00,
2013-04-05 14:58:00,51.6,42.0,29.69,SSW,197,3.0,7.0,70,0.00,,,0.01,weatherlink.com 1.10,2013-04-05 18:58:00,
2013-04-05 15:13:00,50.3,42.0,29.68,South,183,3.0,6.0,73,0.00,,,0.01,weatherlink.com 1.10,2013-04-05 19:13:00,
2013-04-05 15:28:00,49.1,42.0,29.68,South,176,7.0,8.0,75,0.00,,,0.01,weatherlink.com 1.10,2013-04-05 19:28:00,
2013-04-05 15:43:00,48.6,41.0,29.67,SSE,148,2.0,9.0,76,0.00,,,0.01,weatherlink.com 1.10,2013-04-05 19:43:00,
2013-04-05 15:58:00,48.8,42.0,29.66,SE,142,1.0,7.0,76,0.00,,,0.01,weatherlink.com 1.10,2013-04-05 19:58:00,
2013-04-05 16:13:00,48.6,41.0,29.66,SSE,158,1.0,5.0,76,0.00,,,0.01,weatherlink.com 1.10,2013-04-05 20:13:00,
2013-04-05 16:28:00,48.9,41.0,29.66,ESE,110,2.0,5.0,74,0.00,,,0.01,weatherlink.com 1.10,2013-04-05 20:28:00,
2013-04-05 16:43:00,49.5,41.0,29.66,SE,136,2.0,5.0,72,0.00,,,0.01,weatherlink.com 1.10,2013-04-05 20:43:00,
2013-04-05 17:13:00,49.0,41.0,29.67,SE,143,1.0,5.0,74,0.00,,,0.01,weatherlink.com 1.10,2013-04-05 21:13:00,
2013-04-05 17:28:00,48.9,41.0,29.67,SW,219,0.0,9.0,73,0.00,,,0.01,weatherlink.com 1.10,2013-04-05 21:28:00,
2013-04-05 17:43:00,48.2,41.0,29.67,South,183,1.0,6.0,75,0.00,,,0.01,weatherlink.com 1.10,2013-04-05 21:43:00,
2013-04-05 17:58:00,47.7,41.0,29.67,SE,137,4.0,5.0,77,0.00,,,0.01,weatherlink.com 1.10,2013-04-05 21:58:00,
2013-04-05 18:13:00,47.9,40.0,29.68,SW,231,0.0,6.0,75,0.00,,,0.01,weatherlink.com 1.10,2013-04-05 22:13:00,
2013-04-05 18:28:00,47.9,40.0,29.69,South,169,0.0,7.0,73,0.00,,,0.01,weatherlink.com 1.10,2013-04-05 22:28:00,
2013-04-05 18:43:00,47.5,40.0,29.69,South,173,2.0,4.0,74,0.00,,,0.01,weatherlink.com 1.10,2013-04-05 22:43:00,
2013-04-05 18:58:00,46.8,39.0,29.71,WSW,238,0.0,5.0,74,0.00,,,0.01,weatherlink.com 1.10,2013-04-05 22:58:00,
2013-04-05 19:13:00,46.2,39.0,29.71,WSW,238,2.0,2.0,75,0.00,,,0.01,weatherlink.com 1.10,2013-04-05 23:13:00,
2013-04-05 19:28:00,45.9,38.0,29.71,WSW,238,0.0,2.0,73,0.00,,,0.01,weatherlink.com 1.10,2013-04-05 23:28:00,
2013-04-05 19:43:00,45.7,36.0,29.72,SE,125,0.0,3.0,69,0.00,,,0.01,weatherlink.com 1.10,2013-04-05 23:43:00,
2013-04-05 19:58:00,44.6,37.0,29.73,ENE,76,0.0,3.0,74,0.00,,,0.01,weatherlink.com 1.10,2013-04-05 23:58:00,
2013-04-05 20:13:00,43.9,36.0,29.74,East,84,0.0,1.0,73,0.00,,,0.01,weatherlink.com 1.10,2013-04-06 00:13:00,
2013-04-05 20:28:00,43.4,35.0,29.75,SSW,201,0.0,1.0,72,0.00,,,0.01,weatherlink.com 1.10,2013-04-06 00:28:00,
2013-04-05 20:43:00,43.2,35.0,29.76,East,91,0.0,0.0,72,0.00,,,0.01,weatherlink.com 1.10,2013-04-06 00:43:00,
2013-04-05 20:58:00,45.3,33.0,29.77,West,261,1.0,2.0,62,0.00,,,0.01,weatherlink.com 1.10,2013-04-06 00:58:00,
2013-04-05 21:13:00,46.2,31.0,29.78,WNW,295,0.0,2.0,56,0.00,,,0.01,weatherlink.com 1.10,2013-04-06 01:13:00,
2013-04-05 21:43:00,49.5,26.0,29.79,West,281,1.0,9.0,41,0.00,,,0.01,weatherlink.com 1.10,2013-04-06 01:43:00,
2013-04-05 22:13:00,49.3,26.0,29.80,WNW,293,3.0,11.0,40,0.00,,,0.01,weatherlink.com 1.10,2013-04-06 02:13:00,
2013-04-05 22:28:00,48.7,25.0,29.81,NNW,335,5.0,11.0,40,0.00,,,0.01,weatherlink.com 1.10,2013-04-06 02:28:00,
2013-04-05 23:29:00,46.3,25.0,29.85,NW,312,4.0,10.0,44,0.00,,,0.01,weatherlink.com 1.10,2013-04-06 03:29:00,
2013-04-05 23:58:00,44.9,26.0,29.86,NNW,330,2.0,9.0,48,0.00,,,0.01,weatherlink.com 1.10,2013-04-06 03:58:00,